Saint Ignace, MI

5:41 PM EST on December 02, 2016 (GMT -0500)
Mackinac Island

Weather History for KMCD - April, 2014

Change the Weather History Date:

Saturday, April 12, 2014

  Actual Average Record
Temperature  
Mean Temperature 36 °F -  
Max Temperature 38 °F 44 °F 64 °F (2006)
Min Temperature 33 °F 29 °F 19 °F (1992)
Degree Days  
Heating Degree Days 30    
Moisture  
Dew Point 33 °F    
Average Humidity 92    
Maximum Humidity 100    
Minimum Humidity 81    
Precipitation  
Precipitation 0.08 in - - ()
Sea Level Pressure  
Sea Level Pressure 30.04 in    
Wind  
Wind Speed 9 mph (East)    
Max Wind Speed 16 mph    
Max Gust Speed 25 mph    
Visibility 9 miles    
Events Snow    
Averages and records for this station are not official NWS values.
T = Trace of Precipitation, MM = Missing Value Source: NWS Daily Summary

Daily Weather History Graph

Daily Weather History Graph

Search for Another Location

Airport or City:

Trip Planner

Search our weather history database for the weather conditions in past years. The results will help you decide how hot, cold, wet, or windy it might be!

Date:

Astronomy

Apr. 12, 2014 Rise Set
Actual Time 6:57 AM EDT 8:21 PM EDT
Civil Twilight 6:27 AM EDT 8:52 PM EDT
Nautical Twilight 5:49 AM EDT 9:29 PM EDT
Astronomical Twilight 5:09 AM EDT 10:10 PM EDT
Moon 5:52 PM EDT (4/12) 5:32 AM EDT (4/12)
Length of Visible Light 14h 25m
Length of Day
13h 23m
Waxing Gibbous, 93% of the Moon is Illuminated
Apr 12
Waxing Gibbous
Apr 15
Full
Apr 22
Last Quarter
Apr 29
New
May 6
First Quarter

Hourly Weather History & Observations

Time (EDT) Temp. Windchill Dew Point Humidity Pressure Visibility Wind Dir Wind Speed Gust Speed Precip Events Conditions
12:16 AM 37.0 °F 29.8 °F 32.0 °F 82% 29.99 in 10.0 mi SW 10.4 mph 17.3 mph N/A   Clear
12:37 AM 37.0 °F 31.0 °F 32.0 °F 82% 29.99 in 10.0 mi SSW 8.1 mph - N/A   Clear
12:57 AM 37.4 °F 32.1 °F 32.5 °F 83% 30.00 in 10.0 mi SW 6.9 mph - N/A   Clear
1:16 AM 37.6 °F 31.0 °F 32.9 °F 83% 30.00 in 10.0 mi SW 9.2 mph - N/A   Clear
1:37 AM 38.1 °F 32.3 °F 33.1 °F 82% 30.01 in 10.0 mi SW 8.1 mph - N/A   Clear
1:57 AM 37.6 °F 32.3 °F 33.1 °F 84% 30.01 in 10.0 mi SW 6.9 mph - N/A   Clear
2:16 AM 38.3 °F 33.2 °F 33.8 °F 84% 30.01 in 10.0 mi SSW 6.9 mph - N/A   Clear
2:37 AM 38.3 °F 32.5 °F 33.6 °F 83% 30.01 in 10.0 mi SW 8.1 mph - N/A   Clear
2:57 AM 38.3 °F 32.5 °F 33.8 °F 84% 30.00 in 10.0 mi SW 8.1 mph - N/A   Clear
3:16 AM 37.6 °F 32.3 °F 33.4 °F 85% 30.01 in 10.0 mi SW 6.9 mph - N/A   Clear
3:37 AM 37.2 °F 32.6 °F 33.6 °F 87% 30.02 in 10.0 mi WSW 5.8 mph - N/A   Clear
3:57 AM 36.0 °F 29.6 °F 32.9 °F 89% 30.04 in 10.0 mi NW 8.1 mph - N/A   Clear
4:17 AM 35.6 °F 28.6 °F 33.1 °F 91% 30.04 in 10.0 mi West 9.2 mph - N/A   Clear
4:37 AM 36.1 °F 29.9 °F 33.6 °F 91% 30.04 in 10.0 mi WSW 8.1 mph - N/A   Clear
4:57 AM 36.7 °F 31.2 °F 33.8 °F 89% 30.04 in 10.0 mi West 6.9 mph - N/A   Clear
5:17 AM 36.5 °F 31.0 °F 34.2 °F 91% 30.05 in 10.0 mi West 6.9 mph - N/A   Clear
5:37 AM 34.7 °F 28.8 °F 32.9 °F 93% 30.06 in 10.0 mi WSW 6.9 mph - N/A   Clear
5:56 AM 35.6 °F 30.7 °F 33.8 °F 93% 30.07 in 10.0 mi WSW 5.8 mph - N/A   Clear
6:17 AM 35.6 °F 32.8 °F 33.8 °F 93% 30.06 in 10.0 mi West 3.5 mph - N/A   Scattered Clouds
6:37 AM 34.2 °F 31.2 °F 32.9 °F 95% 30.07 in 10.0 mi WNW 3.5 mph - N/A   Mostly Cloudy
6:56 AM 34.9 °F 32.0 °F 33.6 °F 95% 30.08 in 10.0 mi WNW 3.5 mph - N/A   Scattered Clouds
7:17 AM 33.8 °F 29.6 °F 32.9 °F 96% 30.07 in 10.0 mi North 4.6 mph - N/A   Clear
7:37 AM 34.0 °F 31.0 °F 33.4 °F 98% 30.09 in 7.0 mi North 3.5 mph - N/A   Clear
7:56 AM 34.3 °F 31.4 °F 33.8 °F 98% 30.10 in 10.0 mi NNW 3.5 mph - N/A   Clear
8:17 AM 34.9 °F 30.8 °F 34.0 °F 97% 30.10 in 10.0 mi North 4.6 mph - N/A   Clear
8:37 AM 35.4 °F 32.6 °F 33.8 °F 94% 30.10 in 10.0 mi NE 3.5 mph - N/A   Clear
8:57 AM 36.5 °F 33.9 °F 34.3 °F 92% 30.11 in 10.0 mi NE 3.5 mph - N/A   Clear
9:17 AM 36.5 °F 32.7 °F 34.2 °F 91% 30.11 in 10.0 mi NE 4.6 mph - N/A   Scattered Clouds
9:37 AM 36.5 °F 31.0 °F 33.8 °F 90% 30.12 in 10.0 mi NE 6.9 mph - N/A   Mostly Cloudy
9:57 AM 37.0 °F 31.6 °F 33.4 °F 87% 30.11 in 10.0 mi East 6.9 mph - N/A   Overcast
10:17 AM 37.4 °F 31.4 °F 33.1 °F 84% 30.11 in 10.0 mi East 8.1 mph - N/A   Mostly Cloudy
10:36 AM 37.4 °F 31.4 °F 32.7 °F 83% 30.11 in 10.0 mi East 8.1 mph - N/A   Overcast
10:57 AM 37.4 °F 30.3 °F 32.5 °F 83% 30.12 in 10.0 mi East 10.4 mph 16.1 mph N/A   Overcast
11:17 AM 37.4 °F 30.8 °F 32.4 °F 82% 30.12 in 10.0 mi East 9.2 mph - N/A   Overcast
11:36 AM 37.4 °F 32.8 °F 32.2 °F 81% 30.13 in 10.0 mi East 5.8 mph - N/A   Overcast
11:57 AM 36.9 °F 30.7 °F 32.0 °F 83% 30.14 in 10.0 mi East 8.1 mph 16.1 mph N/A   Overcast
12:17 PM 36.7 °F 29.9 °F 32.0 °F 83% 30.13 in 10.0 mi East 9.2 mph 17.3 mph N/A Snow Light Snow
12:37 PM 36.3 °F 27.5 °F 32.2 °F 85% 30.11 in 10.0 mi East 13.8 mph 20.7 mph N/A   Overcast
12:57 PM 36.1 °F 27.3 °F 32.0 °F 85% 30.10 in 10.0 mi East 13.8 mph 21.9 mph N/A   Overcast
1:17 PM 35.6 °F 26.2 °F 32.0 °F 87% 30.09 in 10.0 mi East 15.0 mph 20.7 mph N/A   Overcast
1:37 PM 34.9 °F 26.2 °F 32.0 °F 89% 30.09 in 7.0 mi East 12.7 mph 19.6 mph N/A Snow Light Snow
1:57 PM 34.9 °F 26.2 °F 32.2 °F 90% 30.10 in 4.0 mi East 12.7 mph 18.4 mph N/A Snow Light Snow
2:17 PM 34.7 °F 26.9 °F 32.5 °F 92% 30.10 in 5.0 mi ESE 10.4 mph 18.4 mph 0.02 in Snow Light Snow
2:37 PM 34.7 °F 26.4 °F 32.5 °F 92% 30.10 in 7.0 mi ESE 11.5 mph 18.4 mph 0.05 in Snow Light Snow
2:57 PM 34.3 °F 25.5 °F 32.4 °F 92% 30.09 in 5.0 mi East 12.7 mph 19.6 mph 0.06 in Snow Light Snow
3:17 PM 34.0 °F 24.2 °F 32.4 °F 94% 30.08 in 7.0 mi East 15.0 mph 23.0 mph 0.01 in Snow Light Snow
3:37 PM 33.6 °F 24.1 °F 32.5 °F 96% 30.06 in 4.0 mi East 13.8 mph 19.6 mph 0.02 in Snow Light Snow
3:57 PM 33.4 °F 23.5 °F 32.5 °F 96% 30.05 in 10.0 mi East 15.0 mph 21.9 mph 0.02 in Snow Light Snow
4:18 PM 33.3 °F 24.1 °F 32.5 °F 97% 30.05 in 10.0 mi East 12.7 mph 19.6 mph N/A   Overcast
4:37 PM 33.4 °F 23.5 °F 32.5 °F 96% 30.04 in 10.0 mi East 15.0 mph 20.7 mph N/A   Overcast
4:57 PM 33.4 °F 23.9 °F 32.5 °F 96% 30.03 in 10.0 mi East 13.8 mph 20.7 mph N/A   Overcast
5:17 PM 34.0 °F 24.2 °F 33.1 °F 96% 30.02 in 10.0 mi East 15.0 mph 21.9 mph N/A   Overcast
5:37 PM 34.0 °F 25.0 °F 33.1 °F 96% 30.01 in 10.0 mi East 12.7 mph 25.3 mph N/A   Overcast
5:57 PM 34.2 °F 24.8 °F 33.3 °F 97% 30.01 in 10.0 mi East 13.8 mph 21.9 mph N/A   Overcast
6:17 PM 33.8 °F 23.5 °F 33.1 °F 97% 30.00 in 10.0 mi East 16.1 mph 25.3 mph N/A   Overcast
6:37 PM 33.4 °F 24.3 °F 33.1 °F 99% 30.00 in 7.0 mi East 12.7 mph 21.9 mph N/A   Overcast
6:57 PM 33.3 °F 22.8 °F 32.9 °F 99% 29.99 in 10.0 mi East 16.1 mph 24.2 mph N/A   Overcast
7:17 PM 33.3 °F 23.7 °F 32.9 °F 99% 29.98 in 10.0 mi East 13.8 mph 23.0 mph N/A   Overcast
7:37 PM 33.1 °F 23.9 °F 32.9 °F 99% 29.97 in 7.0 mi East 12.7 mph 21.9 mph N/A   Overcast
7:57 PM 33.1 °F 24.4 °F 32.9 °F 99% 29.97 in 10.0 mi East 11.5 mph 21.9 mph N/A   Overcast
8:17 PM 33.1 °F 24.9 °F 32.9 °F 99% 29.97 in 10.0 mi East 10.4 mph 18.4 mph N/A   Overcast
8:38 PM 33.3 °F 23.7 °F 33.1 °F 99% 29.96 in 10.0 mi East 13.8 mph 21.9 mph N/A   Overcast
8:57 PM 33.3 °F 23.7 °F 33.1 °F 99% 29.97 in 10.0 mi East 13.8 mph 21.9 mph N/A   Overcast
9:17 PM 33.6 °F 25.0 °F 33.3 °F 99% 29.96 in 5.0 mi East 11.5 mph 19.6 mph N/A   Overcast
9:38 PM 33.8 °F 25.3 °F 33.8 °F 100% 29.96 in 3.0 mi East 11.5 mph 21.9 mph N/A   Overcast
9:57 PM 34.0 °F 25.0 °F 34.0 °F 100% 29.95 in 2.5 mi East 12.7 mph 19.6 mph N/A   Overcast
10:17 PM 34.0 °F 25.5 °F 34.0 °F 100% 29.95 in 2.5 mi East 11.5 mph 18.4 mph N/A   Overcast
10:38 PM 34.2 °F 26.8 °F 34.2 °F 100% 29.93 in 2.5 mi East 9.2 mph 19.6 mph N/A   Overcast
10:57 PM 34.3 °F 24.6 °F 34.3 °F 100% 29.92 in 3.0 mi East 15.0 mph 19.6 mph N/A   Overcast
11:17 PM 34.5 °F 25.3 °F 34.5 °F 100% 29.91 in 3.0 mi East 13.8 mph 21.9 mph N/A   Overcast
11:38 PM 34.7 °F 25.1 °F 34.7 °F 100% 29.90 in 4.0 mi East 15.0 mph 25.3 mph N/A   Overcast
11:57 PM 34.7 °F 25.5 °F 34.7 °F 100% 29.90 in 3.0 mi East 13.8 mph 21.9 mph N/A   Overcast